Home   Weather   Surprise   Past weeks
Flag for USA

Past Weather in Surprise, Arizona, USA — Yesterday and Last 2 Weeks

Now
55 °F

Clear.


Feels Like: 53 °F
Forecast: 69 / 41 °F
Wind: 8 mph from Southwest

Location: Luke Air Force Base / Phoenix

Current Time: Jan 17, 2020 at 9:09:40 pm

Latest Report: Jan 17, 2020 at 7:58 pm


Visibility: 10 mi

Pressure: 30.15 "Hg

Humidity: 59%

Dew Point: 41 °F

Location of SurpriseLocation

Past Weather in Surprise — Graph

°F

Surprise Temperature Yesterday

Maximum temperature yesterday: 66 °F (at 2:58 pm)
Minimum temperature yesterday: 45 °F (at 4:58 am)
Average temperature yesterday: 53 °F

High & Low Weather Summary for the Past Weeks

 TemperatureHumidityPressure
High72 °F (Jan 7, 3:58 pm)100% (Jan 17, 1:58 am)30.38 "Hg (Jan 17, 1:58 am)
Low35 °F (Jan 12, 6:58 am)14% (Jan 7, 3:58 pm)29.79 "Hg (Jan 9, 1:58 pm)
Average51 °F58%30.08 "Hg
* Reported Jan 2 7:58 pm — Jan 17 7:58 pm, Surprise. Weather by CustomWeather, © 2020

Note: Actual official high and low records may vary slightly from our data, if they occured in-between our weather recording intervals... More about our weather records

Surprise Weather History for the Previous 24 Hours

Scroll right to see more
 ConditionsComfort  
Time TempWeatherWind HumidityBarometerVisibility
7:58 pm
Fri, Jan 17
55 °FClear.8 mph59%30.15 "Hg10 mi
6:58 pm56 °FClear.3 mph60%30.14 "Hg10 mi
5:58 pm58 °FClear.7 mph56%30.14 "Hg10 mi
4:58 pm63 °FSunny.8 mph46%30.12 "Hg10 mi
3:58 pm64 °FSunny.6 mph46%30.11 "Hg10 mi
2:58 pm63 °FSunny.5 mph48%30.11 "Hg10 mi
1:58 pm62 °FSunny.No wind52%30.11 "Hg10 mi
12:58 pm60 °FSunny.6 mph55%30.14 "Hg10 mi
11:58 am59 °FSunny.3 mph55%30.16 "Hg10 mi
10:58 am56 °FSunny.No wind68%30.16 "Hg10 mi
9:58 am52 °FSunny.No wind78%30.15 "Hg10 mi
8:58 am47 °FSunny.5 mph91%30.13 "Hg10 mi
7:58 am41 °FSunny.6 mph100%30.11 "Hg10 mi
6:58 am40 °FClear.No wind100%30.09 "Hg10 mi
5:58 am40 °FClear.3 mph100%30.06 "Hg10 mi
4:58 am40 °FClear.8 mph100%30.04 "Hg10 mi
3:58 am42 °FClear.6 mph100%30.04 "Hg10 mi
2:58 am42 °FClear.5 mph99%30.03 "Hg10 mi
1:58 am44 °FClear.3 mph100%30.03 "Hg10 mi
12:58 am44 °FClear.No wind95%30.03 "Hg10 mi
11:58 pm
Thu, Jan 16
45 °FClear.3 mph96%30.04 "Hg10 mi
10:58 pm48 °FClear.No wind89%30.04 "Hg10 mi
9:58 pm48 °FClear.5 mph81%30.02 "Hg10 mi
Weather by CustomWeather, © 2020

See weather overview

Advertising